Home > Weather > Tempe > Past weeks

Flag for USA Past Weather in Tempe, Arizona, USA — Yesterday and Last 2 Weeks

Now
110 °F

Passing clouds.


Feels Like: 108 °F
Forecast: 92 / 108 °F
Wind: 17 mph from West

Location: Phoenix Sky Harbor International Airport

Current Time: Jul 23, 2016 at 6:09:13 PM

Latest Report: Jul 23, 2016 at 5:51 PM


Visibility: 10 mi

Pressure: 29.62 "Hg

Humidity: 15%

Dew Point: 53 °F

Location of TempeLocation

Past Weather in Tempe — Graph

°F

Tempe Temperature Yesterday

Maximum temperature yesterday: 111 °F (at 3:51 PM)
Minimum temperature yesterday: 92 °F (at 5:51 AM)
Average temperature yesterday: 101 °F

High & Low Weather Summary for the Past Weeks

 TemperatureHumidityPressure
High111 °F (Jul 14, 3:51 PM)59% (Jul 18, 5:51 AM)29.94 "Hg (Jul 18, 5:51 AM)
Low82 °F (Jul 12, 5:51 AM)5% (Jul 10, 6:51 PM)29.60 "Hg (Jul 10, 6:51 PM)
Average98 °F22%29.78 "Hg
* Reported Jul 8 4:51 PM — Jul 23 4:51 PM, Tempe, Weather by CustomWeather, © 2016

Note: Actual official high and low records may vary slightly from our data, if they occured in-between our weather recording intervals... More about our weather records

Advertising

Tempe Weather History for the Previous 24 Hours

Scroll right to see more
 ConditionsComfort  
Time TempWeatherWind HumidityBarometerVisibility
4:51 PM
Sat, Jul 23
111 °FPassing clouds.14 mph15%29.64 "Hg10 mi
3:51 PM110 °FPassing clouds.15 mph16%29.66 "Hg10 mi
2:51 PM110 °FSunny.10 mph17%29.70 "Hg10 mi
1:51 PM107 °FScattered clouds.13 mph19%29.73 "Hg10 mi
12:51 PM106 °FBroken clouds.8 mph21%29.76 "Hg10 mi
11:51 AM103 °FBroken clouds.14 mph21%29.78 "Hg10 mi
10:51 AM103 °FBroken clouds.13 mph23%29.80 "Hg10 mi
9:51 AM100 °FBroken clouds.15 mph25%29.82 "Hg10 mi
8:51 AM97 °FBroken clouds.16 mph27%29.81 "Hg10 mi
7:51 AM95 °FBroken clouds.12 mph27%29.81 "Hg10 mi
6:51 AM91 °FBroken clouds.6 mph33%29.79 "Hg9 mi
5:51 AM91 °FPartly sunny.8 mph30%29.76 "Hg10 mi
4:51 AM92 °FPassing clouds.5 mph30%29.73 "Hg10 mi
3:51 AM91 °FPassing clouds.3 mph31%29.72 "Hg10 mi
2:51 AM93 °FPassing clouds.5 mph29%29.72 "Hg10 mi
1:51 AM96 °FPassing clouds.3 mph23%29.73 "Hg10 mi
12:51 AM96 °FPassing clouds.5 mph25%29.75 "Hg10 mi
11:51 PM
Fri, Jul 22
97 °FPassing clouds.No wind23%29.74 "Hg10 mi
10:51 PM98 °FPassing clouds.5 mph22%29.73 "Hg10 mi
9:51 PM102 °FPassing clouds.7 mph17%29.75 "Hg10 mi
8:51 PM103 °FPassing clouds.13 mph17%29.73 "Hg10 mi
7:51 PM105 °FPartly cloudy.15 mph18%29.72 "Hg10 mi
6:51 PM107 °FStrong thunderstorms. Broken clouds.25 mph17%29.71 "Hg9 mi
Weather by CustomWeather, © 2016

See weather overviewHow to use our weather pages